This is the latest recevied weather packets stored in our database for station/object KD2DXJ. If no packets are shown the sender has not sent any weather packets the latest 10 day(s).
| Time | Temp. | Humidity | Pressure | Rain* | Wind** | Luminosity | Snow |
|---|---|---|---|---|---|---|---|
| 1778083240 | 6.11° C | 98% | 1008.9 hPa | 0 mm | - | 82 W/m² | - |
| 1778082939 | 6.11° C | 98% | 1008.8 hPa | 0 mm | - | 111 W/m² | - |
| 1778081829 | 6.11° C | 98% | 1008.7 hPa | 0 mm | - | 87 W/m² | - |
| 1778081527 | 6.11° C | 98% | 1008.8 hPa | 0 mm | - | 76 W/m² | - |
| 1778081224 | 6.11° C | 98% | 1008.8 hPa | 0 mm | - | 84 W/m² | - |
| 1778080921 | 6.11° C | 98% | 1008.7 hPa | 1.78 mm | - | 101 W/m² | - |
| 1778080620 | 6.11° C | 98% | 1008.7 hPa | 1.78 mm | - | 97 W/m² | - |
| 1778080316 | 5.56° C | 98% | 1008.8 hPa | 0 mm | - | 92 W/m² | - |
| 1778080013 | 5.56° C | 99% | 1008.6 hPa | 0 mm | - | 103 W/m² | - |
| 1778079710 | 5.56° C | 99% | 1008.7 hPa | 0 mm | - | 112 W/m² | - |
| 1778079407 | 5.56° C | 99% | 1008.6 hPa | 0 mm | - | 96 W/m² | - |
| 1778079103 | 5.56° C | 99% | 1008.7 hPa | 0 mm | - | 103 W/m² | - |
| 1778078801 | 5.56° C | 99% | 1008.7 hPa | 1.27 mm | - | 134 W/m² | - |
| 1778078498 | 5.56° C | 99% | 1008.8 hPa | 1.27 mm | - | 103 W/m² | - |
| 1778078195 | 5.56° C | 99% | 1008.7 hPa | 0 mm | - | 86 W/m² | - |
| 1778077893 | 5.56° C | 99% | 1008.8 hPa | 0 mm | - | 93 W/m² | - |
| 1778077592 | 5.56° C | 99% | 1008.6 hPa | 1.78 mm | - | 85 W/m² | - |
| 1778077289 | 5.56° C | 99% | 1008.7 hPa | 1.78 mm | - | 79 W/m² | - |
| 1778076986 | 5.56° C | 99% | 1008.8 hPa | 0 mm | - | 68 W/m² | - |
| 1778076685 | 5.56° C | 99% | 1009 hPa | 0 mm | - | 68 W/m² | - |
| 1778076382 | 5.56° C | 99% | 1008.5 hPa | 1.27 mm | - | 60 W/m² | - |
| 1778076079 | 5.56° C | 99% | 1008.7 hPa | 1.27 mm | - | 66 W/m² | - |
| 1778075776 | 5.56° C | 99% | 1008.9 hPa | 0 mm | - | 63 W/m² | - |
| 1778075472 | 5.56° C | 99% | 1008.8 hPa | 1.27 mm | - | 72 W/m² | - |
| 1778075169 | 5.56° C | 99% | 1008.8 hPa | 1.27 mm | - | 72 W/m² | - |
* Rain latest hour (hover to see other rain measurements)
** Current wind speed in m/s (hover to see current wind gust speed)